User: anonymous   Login
Location: Newark
(39.9500°N, 8.6833°E)
Time: 12:29:18
(UTC+00:00)
Language:

DELFI C3 - Orbit

View from above orbital plane
View from above orbital plane
View from above satellite
View from above satellite

Ground track
Ground track

The orbit data is extracted from the following two-line orbital elements,

1 32789U 08021G   20049.13401931  .00001265  00000-0  87361-4 0  9990
2 32789  97.4350  96.0579 0012205  16.2476 343.9141 15.07457965643783
Epoch (UTC): 18 February 2020 03:12:59
Eccentricity: 0.0012205
inclination: 97.4350°
perigee height: 535 km
apogee height: 552 km
right ascension of ascending node: 96.0579°
argument of perigee: 16.2476°
revolutions per day: 15.07457965
mean anomaly at epoch: 343.9141°
orbit number at epoch: 64378

The dashed part of the orbit path shows where the satellite is in the earth's shadow,  

DLR